Flag for Burkina Faso Weather past 2 weeks in Koudougou, Burkina Faso

Now
88 °F

Clear.


Feels Like: 90 °F
Forecast: 79 / 103 °F
Wind: 12 mph from Southwest

Location: Ouagadougou Airport

Current Time: May 5, 2015 at 3:19:56 AM

Latest Report: May 5, 2015 at 3:00 AM


Visibility: 10 mi

Pressure: 29.80 "Hg

Humidity: 49%

Dew point: 66 °F

Location of KoudougouLocation

Historic Weather in Koudougou — Graph

°F

Koudougou temperature yesterday

Maximum temperature yesterday: 99 °F (at 3:00 PM)
Minimum temperature yesterday: 84 °F (at 6:00 AM)
Average temperature yesterday: 91 °F

Past Weeks' High & Low Weather Summary

 TemperatureHumidityPressure
High108 °F (Apr 22, 2:00 PM)52% (May 1, 7:00 AM)29.95 "Hg (May 1, 7:00 AM)
Low75 °F (Apr 23, 6:00 AM)7% (Apr 20, 1:00 PM)29.71 "Hg (May 2, 4:00 PM)
Average93 °F27%29.84 "Hg
* Reported Apr 20 2:00 AM — May 5 2:00 AM, Koudougou, Weather by CustomWeather, © 2015

Note: Actual official high and low records may vary slightly from our data, if they occured in-between our weather recording intervals... More about our weather records

Advertising

Koudougou weather history for previous 24 hours

 ConditionsComfort  
Time TempWeatherWind HumidityBarometerVisibility
2:00 AM
Tue, May 5
90 °FClear.12 mph41%29.83 "Hg10 mi
1:00 AM90 °FClear.3 mph41%29.83 "Hg10 mi
12:00 AM90 °FClear.3 mph41%29.83 "Hg5 mi
11:00 PM
Mon, May 4
91 °FClear.2 mph38%29.86 "Hg4 mi
10:00 PM93 °FClear.2 mph36%29.86 "Hg4 mi
9:00 PM93 °FClear.3 mph39%29.86 "Hg5 mi
8:00 PM93 °FClear.2 mph36%29.83 "Hg5 mi
7:00 PM95 °FClear.No wind34%29.83 "Hg5 mi
6:00 PM97 °FClear.2 mph32%29.80 "Hg5 mi
5:00 PM99 °FPassing clouds.6 mph31%29.80 "HgN/A
4:00 PM99 °FPassing clouds.7 mph33%29.77 "HgN/A
3:00 PM99 °FPassing clouds.8 mph31%29.80 "HgN/A
2:00 PM97 °FPassing clouds.10 mph34%29.80 "HgN/A
1:00 PM97 °FPassing clouds.10 mph34%29.83 "HgN/A
12:00 PM95 °FPassing clouds.10 mph36%29.86 "HgN/A
11:00 AM93 °FPassing clouds.10 mph41%29.89 "HgN/A
10:00 AM90 °FClear.10 mph46%29.89 "Hg5 mi
9:00 AM88 °FClear.12 mph49%29.92 "Hg5 mi
8:00 AM84 °FClear.13 mph51%29.89 "Hg5 mi
7:00 AM84 °FClear.12 mph51%29.86 "Hg5 mi
6:00 AM84 °FClear.15 mph51%29.86 "Hg5 mi
5:00 AM86 °FPassing clouds.13 mph49%29.83 "HgN/A
4:00 AM86 °FPassing clouds.12 mph52%29.80 "HgN/A
3:00 AM88 °FPassing clouds.10 mph40%29.80 "HgN/A
Weather by CustomWeather, © 2015

See weather overviewHow to use our weather pages